Temperature
18 18 18 18 18 17 17 17 17 17 17 17 17 17 17 17 17 17 17 17 17 17 17 17 17 17 16 16 16 16 16 16 16 16 16 16 16 16 15 15 15 15 15
18 18 18 18 18 17 17 17 17 17 17 17 17 17 17 17 17 17 17 17 17 17 17 17 17 16 16 16 16 16 16 16 16 16 16 16 16 15 15 15 15 15 15
18 18 18 18 17 17 17 17 17 17 17 17 17 17 17 17 17 17 17 17 17 17 16 16 16 16 16 16 16 16 16 16 16 16 16 16 16 16 15 15 15 15 15
18 18 18 17 17 17 17 17 17 17 17 17 17 17 17 17 17 17 17 17 16 16 16 16 16 16 16 16 16 16 16 16 16 16 16 16 16 16 15 15 15 15 15
18 18 17 17 17 17 17 17 17 17 17 17 17 17 17 17 17 17 17 17 16 16 16 16 16 16 16 16 16 16 16 16 16 16 16 16 16 15 15 15 15 15 15
18 18 17 17 17 17 17 17 17 17 17 17 17 17 17 17 17 17 17 17 16 16 16 16 16 16 16 16 16 16 16 16 16 16 15 15 15 15 15 15 15 15 15
18 17 17 17 17 17 17 17 17 17 17 17 17 17 17 17 17 17 17 17 17 16 16 16 16 16 16 16 16 16 16 16 16 16 15 15 15 15 15 15 15 15 15
17 17 17 17 17 17 17 17 17 17 17 17 17 17 17 17 17 17 17 17 17 17 17 16 16 16 16 16 16 16 16 15 15 15 15 15 15 15 15 15 15 15 15
17 17 17 17 17 17 17 17 17 17 17 17 17 17 17 17 17 17 17 17 17 17 17 16 16 16 16 16 16 16 16 16 15 15 15 15 15 15 15 15 15 15 15
18 17 17 17 17 17 17 17 17 17 17 17 17 17 17 17 17 17 17 17 17 17 17 17 17 17 16 16 16 16 16 16 16 15 15 15 15 15 15 15 15 15 15
18 17 17 17 17 17 17 17 17 17 17 17 17 17 17 17 17 17 17 17 17 17 17 17 17 17 17 16 16 16 16 16 16 15 15 15 15 15 15 15 15 15 15
18 17 17 17 17 17 17 17 17 17 17 17 17 17 17 17 17 17 17 17 17 17 17 17 17 17 17 17 16 16 16 16 16 16 15 15 15 15 15 15 15 15 15
18 18 17 17 17 17 17 17 17 17 17 17 17 17 17 17 17 17 17 17 17 17 17 17 17 17 17 17 17 16 16 16 16 16 16 15 15 15 15 15 15 15 15
18 18 18 17 17 17 17 17 17 17 17 17 16 16 17 17 17 17 17 17 17 17 17 17 17 17 17 17 17 16 16 16 16 16 16 16 15 15 15 15 15 15 15
18 18 17 17 17 17 17 17 17 17 17 16 16 16 16 17 16 16 16 16 16 16 17 17 17 17 17 17 17 17 16 16 16 16 16 16 16 16 15 15 15 15 15
17 17 17 17 17 17 17 17 17 17 16 16 16 16 16 16 16 16 16 16 16 16 16 16 16 17 17 17 17 16 16 16 16 16 16 16 16 15 15 15 15 15 15
17 17 17 17 17 17 17 17 17 16 16 16 16 16 16 16 16 16 16 16 16 16 16 16 16 16 16 16 16 16 16 16 16 16 16 16 15 15 15 15 15 15 15
17 17 17 17 17 17 17 16 16 16 16 16 16 16 16 16 16 16 16 16 16 16 15 16 16 16 16 16 16 16 16 16 16 16 16 15 15 15 15 15 15 15 15
17 17 16 16 17 17 16 16 16 16 16 16 16 16 16 16 16 16 16 16 15 15 15 15 15 15 16 16 16 16 16 16 16 15 15 15 15 15 15 15 15 15 15
16 16 16 16 16 16 16 16 16 16 16 16 16 16 16 16 16 15 15 15 15 15 15 15 15 15 15 15 15 15 15 15 15 15 15 15 15 15 15 14 14 14 14
16 16 16 16 16 16 16 16 16 16 16 16 16 15 15 15 15 15 15 15 15 15 15 15 15 15 15 15 15 15 15 15 15 15 15 14 14 14 14 14 14 14 14
16 16 16 16 16 16 16 16 16 15 15 15 15 15 15 15 15 15 15 15 15 14 14 14 14 14 14 14 14 14 14 14 14 14 14 14 14 14 14 13 13 13 13
16 16 15 15 15 15 15 15 15 15 15 15 15 15 14 14 14 14 14 14 14 14 14 13 13 13 13 13 13 13 13 13 13 13 13 13 13 13 13 13 13 13 12
15 15 15 15 15 15 15 15 15 15 15 14 14 14 14 14 14 14 14 13 13 13 13 13 13 13 13 13 12 12 12 12 12 12 12 12 12 12 12 12 12 12 12
15 15 15 15 15 14 14 14 14 14 14 14 14 14 14 13 13 13 13 13 13 13 12 12 12 12 12 12 12 12 12 12 12 12 11 11 11 11 12 12 12 11 11
14 14 14 14 14 14 14 14 14 14 14 13 13 13 13 13 13 13 12 12 12 12 12 12 12 12 12 11 11 11 11 11 10 10 10 10 10 10 10 11 11 11 10
Wind_Speed
4 4 3 3 3 3 3 3 3 3 3 4 4 5 5 6 7 6 7 9 10 9 9 9 9 9 8 8 8 7 7 7 7 7 6 7 6 6 6 5 5 5 5
6 4 3 3 3 3 3 3 3 2 2 3 3 4 5 5 6 6 6 7 9 10 9 9 9 9 9 8 8 7 7 7 7 7 7 6 6 6 6 6 6 6 6
8 6 4 3 3 4 4 3 3 3 2 2 2 3 4 5 5 6 6 6 7 9 9 9 9 9 9 9 9 8 8 8 8 8 8 8 7 7 7 7 6 6 7
10 7 4 4 5 5 4 3 3 2 2 2 2 2 2 3 4 5 5 6 6 6 8 9 10 10 9 9 9 9 9 9 9 9 9 9 9 9 8 8 8 7 8
11 8 5 5 6 4 3 3 2 2 2 2 2 1 1 2 3 5 5 6 7 7 7 8 10 10 10 10 9 9 10 10 10 11 10 10 11 11 10 10 10 9 9
11 9 6 6 6 4 3 3 3 2 2 2 2 1 0 1 2 3 5 6 7 8 8 8 7 8 10 11 10 10 10 10 11 11 11 11 11 12 12 12 11 11 11
11 9 6 6 6 5 5 5 3 3 2 2 2 1 1 0 2 3 4 4 6 8 8 8 8 8 8 10 11 12 11 10 11 12 12 12 12 12 13 13 13 13 12
11 9 7 6 6 5 5 5 4 3 2 3 3 2 1 2 2 2 3 5 5 6 7 9 9 9 9 8 10 12 13 12 11 11 12 13 13 13 13 13 14 14 14
11 10 9 7 6 6 6 6 6 6 4 2 2 3 3 3 2 1 2 4 4 4 6 7 9 10 11 10 10 12 13 13 12 12 12 12 13 13 13 14 14 14 14
11 11 10 9 8 6 6 7 6 5 5 4 2 1 2 3 2 1 2 2 3 5 6 6 8 10 11 11 12 13 14 14 14 13 13 12 12 13 13 14 14 13 14
9 10 10 9 8 7 7 7 6 6 5 5 4 3 2 1 2 2 2 2 2 3 5 6 7 8 10 11 12 13 15 15 15 14 14 13 13 13 13 13 13 13 13
6 8 10 9 8 7 7 7 7 7 6 5 4 4 4 3 3 3 3 3 3 3 3 4 6 8 9 11 12 14 15 16 16 16 16 15 15 15 14 14 13 13 13
6 9 9 8 7 7 7 7 7 7 7 6 6 4 4 4 3 4 3 2 2 2 2 3 5 7 9 10 12 15 15 17 17 17 17 16 16 16 15 15 15 14 14
8 8 9 9 8 8 8 7 6 7 6 7 7 6 4 4 4 4 4 3 2 2 2 4 2 6 8 9 12 13 12 16 16 17 17 16 16 16 16 16 16 16 15
7 8 9 9 8 8 8 7 6 7 7 7 7 7 5 4 4 4 4 4 4 3 4 4 3 3 6 9 11 10 11 14 15 16 16 16 16 16 16 16 16 16 16
7 8 9 8 8 7 7 7 6 6 7 6 6 7 6 4 4 4 4 4 4 5 4 3 4 3 3 5 8 9 11 12 13 14 15 15 15 15 15 15 15 15 15
8 8 8 8 8 8 7 7 7 7 8 7 6 7 7 5 4 4 3 3 4 4 5 4 2 2 3 4 4 6 7 8 9 12 13 13 13 13 14 14 14 14 14
7 8 7 7 8 7 7 8 8 8 8 8 7 7 6 5 5 4 4 5 5 5 5 5 3 2 4 3 3 3 4 5 7 9 11 12 12 13 13 14 14 13 13
7 6 7 7 7 7 7 7 8 8 8 8 7 7 6 5 5 4 4 5 4 4 4 4 4 2 2 2 2 2 3 3 5 6 8 10 11 12 13 12 13 13 14
6 6 6 6 6 6 6 6 6 6 6 5 5 5 5 6 6 5 4 5 4 4 3 4 4 3 2 2 1 2 3 2 3 4 5 6 7 9 10 11 12 12 13
5 4 5 4 4 4 5 6 6 6 6 5 4 4 4 5 5 5 4 4 4 3 3 3 4 2 2 2 3 2 3 3 3 2 2 3 3 4 6 8 10 12 13
4 4 4 3 3 3 5 7 6 5 5 5 4 3 3 3 4 5 5 5 5 4 4 4 4 4 4 3 2 2 2 2 3 1 2 3 2 4 5 7 10 12 13
3 3 3 3 3 3 5 6 6 5 4 3 3 2 2 1 1 1 2 2 3 5 6 5 5 5 4 3 3 3 3 4 4 2 2 4 3 4 6 8 11 12 12
4 4 3 3 4 3 4 5 6 5 4 3 2 2 2 1 1 1 2 1 1 2 2 3 4 4 3 2 3 3 4 4 4 3 2 4 4 4 5 8 10 11 12
5 5 5 5 5 4 5 4 4 4 3 2 2 2 1 0 1 1 1 1 0 1 1 0 1 1 1 1 0 0 1 2 3 3 2 3 3 4 4 5 7 9 11
5 6 6 6 5 4 5 5 4 3 3 3 3 3 3 2 2 1 1 1 1 1 1 2 2 2 2 2 1 1 2 2 3 3 2 2 3 3 4 3 4 6 8
Wind_Direction
156 157 152 137 135 130 126 118 118 126 126 135 150 157 162 164 167 173 184 188 185 182 181 178 178 177 175 175 174 175 172 169 167 169 170 169 168 166 165 165 160 163 165
169 167 168 159 159 159 152 144 139 139 134 139 150 161 173 173 175 180 189 196 196 192 192 192 190 188 186 186 186 187 186 184 183 184 186 187 187 186 184 184 183 185 183
180 176 175 178 182 172 153 137 124 120 131 137 150 158 166 175 179 187 193 199 205 204 203 203 202 199 196 197 198 200 200 199 199 199 201 203 204 202 201 201 203 203 204
187 177 179 191 184 166 155 146 135 128 133 140 146 157 162 177 189 197 202 206 211 215 217 216 213 210 209 210 212 212 212 211 210 210 212 213 213 215 216 215 216 218 218
190 184 184 187 174 161 163 169 147 144 156 156 151 147 157 185 201 207 211 215 216 218 221 225 223 220 220 221 224 224 222 219 219 218 220 221 221 222 223 223 224 226 228
192 186 182 179 167 159 164 162 139 121 133 150 149 118 96 198 205 218 223 223 223 223 223 225 226 228 229 230 231 232 231 229 227 226 226 227 227 227 228 230 230 231 234
187 182 184 175 171 174 176 164 143 136 127 124 104 57 12 347 223 229 228 227 228 226 223 224 226 229 233 236 237 237 237 235 233 232 230 229 230 231 232 233 236 237 238
185 188 179 181 178 172 169 169 152 142 143 150 137 117 31 330 288 232 222 224 229 226 227 227 226 227 230 234 241 243 242 240 236 234 233 232 232 233 234 234 237 239 241
189 186 182 179 182 179 181 182 170 158 161 165 158 150 158 217 273 291 243 231 224 221 228 229 228 229 230 234 240 244 244 241 238 238 236 233 234 235 235 237 239 241 243
188 187 182 184 184 183 185 187 180 168 156 167 172 181 163 155 167 269 302 267 240 231 231 232 231 230 230 232 235 240 240 239 238 239 239 236 235 235 237 240 243 246 246
192 188 185 186 187 190 191 184 174 175 172 171 173 164 149 127 152 173 245 282 274 245 233 232 235 235 232 231 236 239 239 239 241 240 240 240 239 239 240 244 247 249 250
193 193 190 190 190 189 187 187 182 182 184 178 178 173 169 170 185 182 209 238 254 266 248 235 234 236 234 231 235 237 238 240 242 242 242 242 242 243 244 247 249 251 253
197 198 194 191 191 191 188 183 184 190 187 186 190 195 194 194 171 171 181 212 239 270 285 254 237 237 235 232 237 239 240 241 242 243 243 244 245 246 247 249 250 251 253
199 192 192 192 192 190 191 184 189 195 191 196 201 195 196 199 187 184 179 174 205 264 272 266 257 237 236 232 239 240 243 243 242 242 243 245 246 247 248 249 250 252 254
198 191 190 189 192 191 190 186 195 198 192 199 201 198 201 204 198 202 192 182 182 222 253 255 252 245 237 238 243 238 240 244 242 242 242 243 245 248 250 251 251 251 253
194 186 189 190 192 192 191 189 197 199 194 201 199 198 204 206 203 202 204 203 198 201 234 246 242 253 247 247 242 235 241 245 244 243 244 246 248 250 252 253 254 253 254
189 188 188 189 193 193 191 194 204 198 198 200 199 200 207 200 198 202 199 202 207 198 227 257 249 252 248 255 255 243 246 244 247 245 246 247 249 252 254 254 254 255 256
187 187 182 187 194 195 192 195 206 201 197 199 200 198 207 201 201 205 203 211 215 210 218 245 255 244 244 255 256 254 255 252 249 250 244 245 250 253 254 254 253 254 256
182 179 180 190 195 194 192 195 198 198 196 197 193 196 203 197 210 212 210 214 217 215 214 229 251 247 255 270 272 271 269 268 264 257 249 249 251 255 255 255 255 257 258
177 181 185 189 191 190 191 189 185 183 183 186 187 190 193 198 211 211 214 218 213 207 208 223 245 254 256 262 248 255 269 262 267 270 262 259 257 257 258 257 258 258 259
174 172 172 177 180 183 188 177 177 179 179 178 180 187 194 196 203 208 216 219 209 213 217 229 246 255 255 245 245 241 253 271 269 252 261 263 259 264 270 268 264 264 264
154 147 155 163 171 184 161 160 167 175 176 178 188 193 201 211 220 219 221 217 205 210 221 226 240 245 257 252 255 243 248 262 272 245 247 271 252 265 270 271 274 272 270
129 133 147 152 145 132 138 143 150 158 158 168 180 189 213 233 207 225 230 229 229 229 217 218 234 243 252 246 236 246 240 244 255 267 239 266 252 264 273 275 272 273 273
116 114 110 109 103 85 106 129 136 139 138 144 153 169 179 207 241 213 214 229 239 251 241 228 238 250 256 253 228 239 249 259 266 261 221 259 270 274 288 284 277 275 278
102 94 89 88 87 64 64 88 121 125 124 112 94 82 95 78 358 121 178 209 172 347 8 139 196 292 325 345 140 189 258 261 272 268 219 247 273 288 285 279 280 283 283
100 95 82 76 80 68 61 78 111 114 107 88 67 54 49 43 27 106 158 172 189 306 359 37 35 12 5 14 68 199 238 263 274 276 248 253 274 288 286 272 283 293 293
Height
1555 1557 1559 1561 1563 1564 1566 1568 1569 1571 1572 1574 1575 1576 1577 1578 1579 1579 1580 1581 1582 1583 1584 1585 1586 1587 1588 1589 1590 1591 1592 1593 1594 1595 1596 1597 1597 1598 1598 1599 1600 1600 1601
1556 1558 1560 1561 1563 1565 1567 1568 1570 1571 1573 1574 1576 1577 1578 1578 1579 1580 1581 1582 1583 1583 1584 1585 1586 1587 1588 1589 1590 1591 1592 1593 1594 1595 1596 1596 1597 1598 1598 1599 1599 1600 1601
1556 1558 1560 1562 1564 1565 1567 1569 1570 1572 1573 1574 1576 1577 1578 1579 1579 1580 1581 1582 1583 1583 1584 1585 1586 1587 1588 1589 1590 1591 1592 1593 1594 1594 1595 1596 1597 1597 1598 1598 1599 1599 1600
1556 1558 1560 1562 1564 1565 1567 1569 1570 1571 1573 1574 1575 1577 1578 1579 1579 1580 1581 1582 1583 1584 1584 1585 1586 1587 1588 1589 1589 1590 1591 1592 1593 1593 1594 1595 1596 1596 1597 1597 1598 1598 1599
1555 1557 1559 1562 1563 1565 1566 1568 1570 1571 1572 1574 1575 1576 1577 1578 1579 1580 1581 1582 1582 1583 1584 1585 1586 1586 1587 1588 1589 1589 1590 1591 1591 1592 1593 1593 1594 1595 1595 1596 1596 1597 1598
1554 1556 1558 1560 1562 1564 1566 1567 1569 1570 1572 1573 1574 1575 1576 1577 1578 1579 1580 1581 1582 1582 1583 1584 1585 1586 1586 1587 1587 1588 1589 1589 1590 1590 1591 1592 1592 1593 1593 1594 1595 1595 1596
1552 1554 1557 1559 1561 1562 1564 1566 1568 1569 1571 1572 1573 1575 1575 1576 1577 1578 1579 1579 1580 1581 1582 1583 1584 1584 1585 1586 1586 1587 1587 1588 1588 1588 1589 1589 1590 1591 1591 1592 1592 1593 1593
1550 1552 1555 1557 1559 1561 1563 1564 1566 1567 1569 1571 1572 1573 1574 1576 1575 1576 1577 1577 1578 1579 1580 1581 1582 1583 1583 1584 1584 1585 1585 1586 1586 1586 1587 1587 1588 1588 1589 1589 1590 1590 1591
1547 1549 1552 1554 1557 1559 1560 1562 1564 1565 1567 1569 1571 1572 1573 1573 1574 1575 1575 1576 1576 1577 1578 1579 1580 1581 1581 1582 1583 1583 1584 1584 1584 1584 1585 1585 1585 1585 1586 1586 1587 1587 1588
1544 1547 1549 1552 1554 1556 1558 1560 1562 1563 1565 1567 1568 1570 1572 1572 1572 1573 1574 1574 1575 1575 1576 1577 1578 1579 1579 1580 1580 1581 1581 1582 1582 1582 1582 1582 1583 1583 1583 1583 1584 1584 1584
1540 1543 1546 1548 1550 1553 1555 1557 1559 1561 1563 1564 1566 1567 1569 1570 1570 1571 1571 1572 1573 1573 1574 1575 1575 1576 1577 1577 1578 1579 1579 1579 1580 1580 1580 1580 1580 1580 1581 1581 1581 1581 1581
1537 1540 1542 1545 1547 1550 1552 1554 1556 1558 1560 1562 1563 1565 1566 1567 1568 1569 1569 1569 1570 1571 1571 1572 1573 1573 1574 1574 1575 1576 1576 1577 1577 1577 1577 1577 1578 1578 1578 1578 1578 1578 1578
1532 1535 1538 1541 1544 1547 1549 1551 1553 1555 1557 1558 1560 1562 1563 1564 1565 1566 1567 1567 1567 1568 1568 1569 1570 1570 1571 1571 1572 1573 1573 1574 1574 1574 1574 1574 1575 1575 1574 1574 1574 1574 1574
1529 1532 1535 1538 1540 1543 1546 1548 1550 1552 1553 1555 1557 1558 1560 1561 1562 1563 1564 1565 1564 1565 1565 1566 1567 1567 1567 1568 1568 1569 1569 1570 1570 1570 1571 1571 1571 1571 1571 1571 1571 1570 1570
1525 1528 1531 1534 1537 1540 1542 1544 1546 1548 1550 1551 1553 1555 1556 1557 1559 1560 1560 1561 1562 1562 1562 1562 1563 1564 1564 1564 1565 1565 1566 1566 1566 1567 1567 1567 1567 1567 1566 1566 1566 1566 1566
1521 1524 1526 1530 1533 1536 1538 1540 1542 1544 1546 1548 1549 1551 1552 1553 1555 1556 1557 1558 1558 1559 1558 1559 1559 1560 1560 1561 1561 1561 1562 1562 1562 1562 1562 1562 1562 1562 1562 1562 1562 1561 1561
1516 1519 1522 1525 1529 1532 1534 1536 1538 1540 1542 1544 1545 1547 1548 1550 1551 1552 1553 1554 1554 1555 1555 1555 1556 1556 1556 1557 1557 1557 1557 1557 1557 1558 1558 1558 1558 1558 1557 1557 1557 1556 1556
1512 1515 1519 1522 1525 1528 1530 1532 1534 1536 1538 1540 1542 1544 1545 1546 1547 1548 1549 1550 1550 1551 1551 1551 1551 1552 1552 1552 1552 1552 1552 1552 1553 1553 1553 1553 1552 1552 1552 1552 1552 1551 1551
1508 1512 1515 1518 1521 1524 1526 1528 1530 1532 1534 1536 1538 1540 1541 1542 1543 1544 1545 1546 1546 1546 1547 1547 1547 1547 1547 1548 1547 1547 1548 1547 1547 1547 1547 1547 1547 1547 1546 1546 1546 1545 1545
1505 1508 1511 1514 1517 1519 1522 1524 1526 1528 1530 1532 1534 1536 1537 1538 1539 1540 1541 1541 1542 1542 1542 1542 1542 1543 1543 1543 1542 1542 1542 1542 1542 1542 1542 1541 1541 1541 1541 1540 1540 1539 1538
1503 1506 1508 1510 1513 1515 1517 1520 1522 1524 1526 1528 1530 1532 1533 1534 1535 1536 1537 1537 1537 1537 1537 1537 1538 1538 1538 1538 1538 1537 1537 1537 1536 1536 1536 1536 1535 1535 1534 1534 1533 1532 1531
1502 1504 1506 1508 1510 1512 1514 1516 1518 1520 1522 1524 1526 1527 1529 1530 1531 1531 1532 1533 1533 1533 1533 1533 1533 1533 1533 1533 1533 1533 1532 1531 1530 1531 1530 1529 1529 1528 1528 1527 1526 1526 1524
1500 1502 1504 1506 1508 1510 1512 1513 1515 1517 1518 1520 1522 1523 1525 1525 1526 1527 1528 1528 1528 1529 1529 1529 1528 1528 1528 1528 1528 1528 1527 1526 1525 1525 1524 1522 1523 1522 1521 1520 1520 1518 1517
1499 1501 1503 1504 1506 1507 1509 1511 1512 1514 1515 1517 1519 1520 1521 1521 1522 1522 1523 1523 1524 1524 1524 1524 1524 1524 1524 1524 1523 1523 1522 1521 1520 1519 1518 1517 1516 1515 1514 1514 1513 1511 1510
1498 1499 1501 1503 1504 1506 1507 1509 1510 1511 1513 1514 1515 1517 1517 1518 1518 1518 1519 1519 1519 1519 1519 1519 1520 1520 1519 1519 1519 1518 1517 1516 1514 1514 1513 1511 1509 1508 1507 1507 1506 1504 1503
1497 1499 1501 1502 1504 1505 1507 1508 1509 1510 1510 1511 1513 1514 1515 1515 1515 1516 1516 1516 1516 1516 1517 1516 1516 1516 1516 1515 1514 1514 1513 1512 1510 1509 1508 1506 1504 1503 1500 1499 1499 1497 1496